Dallas Fort Worth International Airport
KDFW : now visible

Airfield :











YOU CAN JOIN US ON...

 
LOGIN :

Register | Disclaimer

   EN    FR    IT 

 









Legend :    VFR   Marginal VFR   IFR   Intensive IFR   Very Intensive IFR
Visi :
Ceiling :
>= 8 km
>= 3000ft
5 to 8 km
1000 to 3000 ft
1500m to 5 km
500 to 1000 ft
800 to 1500m
200 to 500 ft
< 800m
< 200 ft
Symbols :   Thunderstorms  Fog  Heavy snow  Heavy precipitations  Wind > 20 kt






- Airport Elevation : 607 ft
- IATA code : DFW


KDFW - Dallas Fort Worth International

CURRENT METAR :
  • 100253Z 12008KT 10SM SCT250 30/24 A2987 RMK AO2 SLP107 T03000239 53022

EXPIRED METARs :
  • 100153Z 13012KT 10SM SCT250 32/23 A2983 RMK AO2 SLP092 T03170233
  • 100053Z 15011G17KT 10SM FEW050 SCT250 33/23 A2983 RMK AO2 SLP092 T03280233

TAF KDFW
Valid from the 10 at 03:00 until the 11 at 06:00 UTC


100258Z 1003/1106 14008KT P6SM FEW250
FM101200 17006KT P6SM FEW020 FEW250
FM101800 17010KT P6SM FEW070 FEW250
KZFW FIR / North America



MET'MAP, your aeronautical weather chart ! - Copyright ORBIFLY December 2007 - Disclaimer

ORBIFLY MET'MAP TEAM :

Programming & Development : Alexandra Zaïnal
Concept & original design : Baudouin d'Aumeries
Assistance for programming : Marc-Olivier Méhu
Technical & hardware support : Manuel Goepfert

Contact : metmap@orbifly.com




SOURCES & CREDITS :

   NOAA       Earth
Advisory